Wind_Speed
18 18 18 19 20 21 20 20 19 19 19 19 19 19 18 19 20 20 18 17 17 16 17 17 18 18 18 17 16 16 16 15 14 14 14 13 13 12 12 12 11 10 10 9 9 9 9 7 8
19 19 20 21 21 21 22 21 20 21 21 21 21 21 21 21 21 21 20 19 19 18 18 19 19 19 19 18 18 17 17 16 15 16 16 15 14 14 13 13 13 12 11 11 10 9 9 9 9
20 20 21 22 22 23 23 22 22 22 23 23 23 23 23 22 23 23 22 21 21 21 20 20 20 20 20 20 19 19 18 17 17 17 17 17 17 16 15 14 14 13 13 13 12 11 10 10 10
21 21 22 23 23 24 24 23 23 24 24 25 25 25 24 24 24 24 24 23 23 23 22 22 22 22 21 22 21 21 20 19 19 18 18 19 18 19 17 16 16 15 15 14 14 13 12 12 12
22 23 24 24 25 25 25 25 25 26 26 26 26 27 26 25 26 25 25 25 25 25 24 24 24 24 24 24 23 23 22 22 21 20 20 20 20 20 20 19 18 17 17 16 16 15 15 14 14
23 24 25 26 26 26 26 27 27 27 27 27 27 28 27 26 27 26 26 26 26 26 26 26 26 25 26 26 26 25 24 24 23 23 22 22 22 22 22 21 20 20 19 19 18 17 17 17 16
24 25 26 26 26 27 27 28 28 28 28 28 29 29 28 28 28 28 28 27 28 28 28 28 28 27 27 27 27 27 26 26 25 25 24 24 24 24 24 23 23 22 22 21 20 20 19 19 19
25 26 26 27 27 27 28 29 29 29 29 30 30 31 30 29 29 29 29 29 29 29 29 29 29 29 28 29 29 28 28 27 27 26 26 26 26 26 25 25 25 25 24 24 23 23 22 21 21
25 26 26 27 28 29 29 30 30 30 31 31 32 33 32 31 30 30 30 30 30 30 30 30 30 30 30 30 30 30 29 29 29 28 28 28 28 28 27 27 27 27 26 26 25 25 25 24 24
26 27 27 28 29 30 31 32 32 33 33 33 33 34 34 33 33 32 32 32 31 31 31 31 32 32 31 31 31 31 31 31 30 31 30 30 30 30 29 29 29 28 28 28 28 27 27 27 26
26 27 28 29 31 32 33 34 34 34 34 34 34 35 35 35 35 34 34 33 33 33 33 33 33 33 33 33 33 33 32 32 32 32 32 32 32 32 31 31 30 30 30 30 30 29 29 29 29
27 28 29 30 32 33 34 35 35 35 35 35 36 37 37 37 36 36 35 35 35 35 34 35 34 35 36 36 35 35 35 34 34 34 33 33 33 33 33 33 32 32 32 32 32 32 32 32 31
27 28 29 31 33 34 34 35 35 35 36 36 37 37 38 38 38 38 37 37 37 37 37 37 38 37 37 38 38 37 37 37 37 36 36 35 35 35 35 35 35 35 35 35 35 34 34 34 34
28 29 30 30 32 34 35 35 35 35 36 37 38 38 39 40 39 39 39 39 39 39 39 38 39 39 39 39 40 39 40 39 39 39 38 37 37 37 37 37 37 37 37 37 37 36 36 36 36
29 30 30 31 32 34 36 35 35 36 37 37 37 38 40 40 40 40 40 40 40 40 40 40 40 41 41 41 41 40 40 40 40 40 39 39 39 39 39 39 39 39 39 40 39 38 38 38 38
30 31 31 31 32 34 36 35 35 37 38 38 38 38 40 40 40 40 41 41 41 42 42 42 42 42 42 43 43 43 42 41 41 41 41 41 41 41 41 41 41 42 42 42 42 41 40 40 40
30 31 32 32 32 34 36 36 35 37 38 38 38 38 40 40 40 40 41 41 42 43 43 43 43 43 43 43 43 44 44 43 43 43 42 42 43 43 43 43 44 44 43 43 43 43 43 43 43
30 32 32 32 33 35 36 36 36 37 38 38 38 38 39 40 40 40 40 41 42 42 43 43 44 44 45 45 45 45 45 45 44 44 44 44 44 44 44 44 44 45 45 45 45 45 45 45 46
31 32 33 32 33 35 36 37 37 37 38 38 39 39 40 40 40 40 40 41 41 42 43 44 44 45 45 46 47 46 47 46 46 45 45 45 45 45 45 45 45 45 46 47 48 47 47 47 48
31 32 32 33 33 35 37 37 37 37 38 39 39 39 39 40 40 41 40 41 41 42 42 43 44 44 46 47 48 48 47 47 47 47 46 46 46 46 45 46 46 47 47 48 49 49 49 49 49
32 32 32 33 33 35 37 37 36 36 37 38 38 38 39 39 40 40 40 41 41 42 43 44 44 44 46 47 47 48 48 48 48 48 47 48 48 48 48 47 48 48 49 49 50 50 50 50 51
32 32 32 32 34 35 36 37 34 34 35 35 35 37 38 38 40 40 40 41 42 42 43 43 44 45 46 47 47 47 48 48 48 49 48 49 49 49 50 50 50 50 50 51 51 52 52 51 51
32 32 32 32 34 35 34 36 34 33 33 34 35 36 37 37 39 39 40 41 43 42 43 42 44 45 46 47 47 47 47 48 48 48 48 49 50 51 51 52 51 51 51 52 53 53 53 53 52
31 32 33 33 34 35 33 34 34 32 32 33 34 34 35 35 36 38 39 41 42 41 42 42 43 45 45 46 47 47 48 48 48 48 48 49 50 51 51 52 52 52 52 52 53 53 54 54 54
31 32 34 34 34 33 32 33 33 31 31 31 32 33 33 34 35 36 38 39 40 40 41 42 43 44 45 46 46 47 47 48 49 49 49 49 50 50 51 52 53 53 54 54 54 54 54 54 53
31 31 32 34 34 33 32 32 31 31 31 31 32 32 33 34 35 36 37 38 38 39 41 42 43 44 45 46 47 47 48 48 49 49 50 50 50 51 51 52 53 53 54 55 55 54 54 54 53
32 31 32 34 35 35 34 33 32 30 31 32 33 33 33 34 35 36 37 38 38 39 40 42 43 44 45 46 47 47 48 48 48 49 50 51 51 51 52 52 52 53 53 54 54 55 54 53 53
32 32 32 33 35 37 36 35 33 32 32 33 33 33 33 35 36 37 38 38 39 39 40 42 42 44 45 45 46 47 48 48 48 49 50 51 51 52 52 52 52 52 52 53 53 54 54 53 52
32 32 33 34 35 37 38 35 34 33 34 34 34 34 34 35 35 36 37 37 37 40 40 41 41 42 44 45 46 46 48 49 49 49 49 50 51 51 52 52 51 51 51 51 51 52 52 53 52
33 33 33 34 35 36 38 35 33 34 34 34 34 34 34 34 34 35 36 37 37 38 39 39 40 41 43 45 45 46 47 48 49 49 49 49 50 51 51 51 50 50 50 51 51 51 52 52 52
Wind_Direction
256 254 251 250 250 249 251 251 252 252 253 254 254 254 253 253 254 255 253 250 248 247 246 245 244 243 244 244 243 243 242 242 241 240 238 237 235 234 234 234 232 232 233 232 234 233 229 228 223
256 255 252 251 251 251 251 254 255 254 253 253 253 253 252 253 254 255 253 250 248 247 248 248 247 245 244 244 243 242 242 241 242 240 238 238 236 235 235 235 234 235 236 236 236 239 236 230 228
256 254 253 252 252 253 256 256 256 255 253 253 252 252 252 252 253 253 253 251 250 249 249 249 248 246 245 244 242 242 241 240 242 242 240 240 239 238 238 238 236 237 238 239 239 240 243 239 233
257 255 254 253 253 254 256 257 256 255 254 253 253 253 252 252 253 253 253 253 252 251 250 249 248 247 246 245 243 242 243 242 243 244 244 242 242 240 240 240 241 242 242 242 242 244 246 245 240
257 256 256 256 256 256 257 257 257 258 257 255 253 253 253 253 253 253 254 254 253 251 251 250 249 248 247 245 244 244 244 245 245 245 247 246 244 241 241 242 243 244 244 244 244 245 247 246 245
258 258 258 258 258 257 257 257 257 259 258 257 255 254 253 253 254 253 253 253 253 253 252 251 250 249 248 246 244 244 245 246 246 247 248 250 250 248 245 245 246 247 247 247 246 246 247 246 246
261 260 260 261 261 260 258 258 258 258 258 257 256 255 254 253 253 253 253 253 253 254 253 252 251 250 248 247 245 244 245 246 247 248 249 250 250 251 250 248 249 250 250 250 250 250 248 246 246
262 262 263 263 263 262 260 259 258 258 257 256 255 255 254 254 254 253 253 253 254 254 253 252 251 250 248 247 246 245 246 246 247 249 250 251 251 251 252 251 251 252 252 253 252 252 251 248 247
265 265 266 266 266 265 263 261 259 259 258 255 255 255 255 255 254 253 253 253 253 252 252 251 250 249 248 247 247 247 247 248 249 250 251 251 252 252 253 253 252 252 253 254 254 253 252 250 250
268 269 269 268 268 267 265 263 261 260 259 257 255 255 255 255 254 253 253 253 253 252 251 251 250 250 249 248 248 248 248 249 250 251 252 253 253 254 254 254 253 253 253 254 255 254 253 251 251
271 271 271 270 269 268 265 263 260 261 260 258 256 255 254 254 254 253 253 253 252 252 251 251 251 250 250 250 250 250 250 250 251 252 253 254 254 254 254 255 254 253 253 253 254 254 254 252 251
275 274 273 272 270 269 266 264 261 260 260 259 257 255 253 253 253 253 253 253 252 252 252 252 252 252 251 251 251 252 252 251 252 252 254 254 254 254 254 255 255 255 254 253 253 253 254 253 252
277 276 276 274 271 270 268 265 263 261 261 260 259 256 254 253 253 253 254 254 253 253 253 253 254 253 252 252 253 253 253 252 252 253 254 255 255 255 255 255 256 256 255 254 253 253 253 253 253
279 278 277 276 274 271 269 267 265 263 263 261 260 257 255 254 254 254 254 254 254 253 253 253 253 254 253 253 253 254 254 254 254 254 255 256 257 257 257 257 256 257 256 255 254 253 253 253 252
281 279 278 277 276 274 271 268 266 265 264 263 261 259 256 255 254 254 254 254 254 253 253 253 253 253 254 253 253 253 254 254 255 256 256 256 257 258 258 258 257 257 257 256 255 254 253 253 253
282 281 280 280 279 277 273 270 268 267 266 265 263 261 257 254 255 255 254 254 254 253 253 252 252 253 253 253 253 253 254 255 255 256 256 257 258 259 259 259 258 258 258 257 256 255 254 253 253
284 283 283 281 280 278 276 273 270 269 267 265 264 262 258 255 255 255 255 255 255 254 253 252 252 252 253 253 253 254 255 256 256 257 258 259 259 259 260 260 259 258 258 258 257 257 256 255 254
288 286 284 283 281 279 278 275 272 270 268 266 265 262 258 255 255 256 255 255 255 255 254 252 252 253 253 253 254 255 256 257 258 258 259 260 260 259 260 260 259 258 258 258 257 257 256 256 255
288 288 287 285 284 281 280 278 275 273 270 267 267 264 258 256 255 255 256 255 255 255 254 253 253 253 253 254 255 256 256 257 259 260 260 260 259 259 260 260 260 259 258 258 258 257 256 257 257
290 289 289 287 286 285 283 281 278 276 273 269 267 264 259 257 256 255 256 255 255 255 255 254 254 254 254 255 256 256 257 257 258 259 260 260 260 260 260 261 262 261 260 259 259 259 258 258 258
291 290 290 290 288 286 286 284 281 279 276 272 268 264 261 258 257 256 256 256 255 255 255 254 254 256 256 256 256 257 258 258 258 258 259 260 261 261 262 263 262 262 261 260 260 260 260 259 259
292 291 291 291 290 289 290 288 284 283 278 273 270 266 262 260 258 257 257 257 257 256 256 255 256 257 258 257 257 258 258 259 259 258 259 260 261 263 263 264 263 262 262 262 261 261 261 260 260
295 292 291 293 293 292 293 290 289 287 281 276 272 269 264 262 260 258 258 258 257 257 256 256 258 258 259 258 259 259 259 258 259 259 259 260 262 264 265 265 265 263 262 262 261 262 261 261 261
295 292 291 293 294 293 294 292 291 289 284 279 275 270 266 264 262 260 259 258 257 258 259 259 260 260 260 260 259 260 259 259 259 260 261 261 263 266 266 265 264 263 262 262 261 261 261 261 261
295 294 294 294 296 296 296 293 293 291 287 282 278 272 268 267 265 262 259 259 259 259 261 261 261 261 261 261 261 260 260 260 261 262 262 263 265 267 266 266 265 264 263 262 261 261 260 260 259
295 294 294 296 297 298 297 296 295 292 289 284 279 275 270 267 265 262 261 260 261 262 264 263 262 262 262 262 262 261 261 262 262 263 264 265 266 267 267 267 266 265 264 263 262 260 259 259 258
296 294 295 296 297 298 298 298 296 294 291 286 282 277 272 269 267 264 263 264 265 267 266 264 264 263 263 263 263 263 263 263 264 265 265 266 267 267 266 266 266 266 265 264 262 260 259 258 258
295 296 296 297 298 299 299 298 297 297 294 289 284 278 275 273 271 268 268 268 268 267 268 266 266 265 264 264 264 264 264 265 266 267 267 267 268 267 266 266 266 266 266 264 262 260 258 257 257
295 295 295 295 296 298 299 300 298 297 295 292 286 281 277 275 273 270 269 268 270 270 270 269 268 267 265 264 264 265 265 266 267 268 268 268 268 268 266 266 266 265 264 263 261 259 258 256 255
295 295 294 295 295 296 297 300 297 296 295 294 290 285 280 278 275 272 269 268 270 271 271 270 269 269 268 266 265 266 267 267 268 269 269 269 269 268 267 266 266 265 263 262 260 259 257 256 255
Height
5805 5806 5806 5807 5808 5809 5810 5812 5814 5815 5816 5817 5818 5819 5820 5821 5822 5825 5825 5824 5825 5826 5827 5828 5829 5830 5831 5832 5833 5834 5835 5835 5836 5837 5838 5839 5840 5841 5842 5843 5843 5844 5845 5846 5847 5847 5848 5849 5849
5801 5802 5803 5803 5804 5804 5806 5808 5810 5812 5813 5814 5815 5816 5816 5817 5818 5819 5820 5821 5822 5823 5824 5824 5826 5827 5828 5829 5830 5831 5832 5833 5834 5835 5836 5837 5838 5839 5840 5841 5842 5842 5843 5844 5845 5845 5846 5847 5848
5796 5797 5799 5799 5799 5800 5802 5804 5806 5807 5808 5809 5811 5812 5813 5814 5814 5815 5816 5817 5818 5819 5820 5821 5822 5823 5824 5825 5827 5828 5829 5830 5831 5832 5833 5834 5836 5837 5838 5839 5840 5840 5841 5842 5843 5844 5845 5845 5846
5792 5793 5794 5795 5794 5796 5797 5800 5801 5802 5803 5805 5806 5807 5808 5809 5810 5811 5812 5813 5814 5815 5816 5817 5818 5819 5820 5822 5823 5824 5826 5827 5828 5829 5830 5831 5832 5834 5835 5836 5837 5838 5839 5839 5840 5841 5842 5843 5844
5787 5788 5789 5789 5790 5791 5793 5795 5796 5797 5798 5799 5801 5802 5803 5804 5805 5806 5807 5808 5809 5810 5811 5812 5813 5814 5816 5817 5819 5820 5822 5823 5824 5825 5826 5828 5829 5830 5831 5832 5834 5835 5836 5836 5837 5838 5839 5840 5842
5782 5783 5783 5783 5785 5786 5788 5789 5790 5791 5793 5794 5795 5796 5798 5799 5800 5801 5802 5803 5804 5805 5806 5807 5808 5810 5811 5812 5814 5815 5817 5819 5820 5821 5822 5824 5825 5826 5827 5828 5830 5831 5832 5833 5834 5835 5836 5837 5838
5777 5777 5777 5778 5778 5780 5782 5783 5784 5785 5786 5788 5788 5790 5791 5793 5794 5795 5796 5797 5798 5799 5801 5802 5803 5804 5805 5807 5808 5810 5812 5813 5815 5816 5818 5819 5820 5822 5823 5824 5825 5827 5828 5829 5830 5831 5832 5833 5835
5770 5772 5771 5772 5772 5774 5775 5776 5777 5778 5779 5781 5782 5783 5784 5786 5787 5789 5790 5791 5792 5793 5794 5795 5797 5798 5799 5801 5803 5805 5806 5808 5810 5811 5813 5814 5815 5817 5818 5819 5821 5822 5823 5825 5826 5827 5828 5829 5830
5764 5766 5765 5765 5766 5767 5768 5768 5770 5770 5771 5773 5774 5775 5777 5779 5780 5782 5783 5784 5785 5787 5788 5789 5790 5792 5793 5795 5797 5798 5800 5802 5804 5805 5807 5808 5810 5811 5812 5814 5815 5817 5818 5819 5821 5822 5823 5824 5825
5758 5758 5759 5759 5759 5759 5759 5760 5762 5762 5763 5764 5766 5767 5769 5771 5773 5774 5776 5777 5778 5780 5781 5782 5784 5785 5787 5789 5790 5792 5794 5796 5797 5799 5801 5802 5804 5805 5807 5808 5809 5811 5812 5814 5815 5816 5817 5819 5820
5751 5752 5751 5751 5751 5750 5751 5751 5752 5753 5754 5756 5757 5759 5760 5762 5764 5766 5768 5769 5771 5772 5773 5775 5777 5778 5780 5782 5783 5785 5787 5789 5791 5792 5794 5795 5797 5798 5800 5801 5803 5804 5806 5807 5808 5810 5811 5813 5814
5745 5744 5744 5743 5742 5742 5742 5742 5743 5743 5745 5746 5747 5749 5751 5753 5755 5757 5759 5760 5762 5764 5765 5767 5769 5771 5772 5774 5776 5777 5779 5781 5783 5785 5786 5788 5789 5791 5792 5794 5796 5797 5798 5800 5802 5803 5804 5806 5808
5738 5737 5736 5735 5734 5733 5732 5733 5734 5734 5735 5736 5737 5739 5741 5743 5745 5747 5749 5751 5752 5754 5756 5758 5760 5762 5764 5766 5767 5769 5771 5773 5774 5776 5778 5780 5781 5783 5784 5786 5788 5789 5790 5792 5794 5795 5797 5799 5801
5730 5729 5728 5726 5725 5724 5723 5724 5724 5725 5725 5726 5727 5729 5730 5733 5735 5737 5738 5740 5742 5744 5746 5748 5750 5752 5754 5756 5758 5760 5762 5764 5765 5767 5769 5771 5772 5774 5776 5777 5779 5780 5782 5783 5785 5787 5789 5791 5792
5721 5720 5719 5718 5716 5715 5714 5715 5716 5715 5715 5716 5716 5718 5719 5721 5724 5726 5728 5730 5732 5734 5736 5737 5740 5742 5744 5746 5748 5750 5752 5754 5756 5757 5759 5761 5762 5764 5766 5768 5769 5771 5772 5774 5776 5778 5780 5782 5784
5713 5712 5711 5710 5708 5706 5706 5706 5707 5705 5705 5706 5706 5707 5708 5710 5712 5715 5717 5718 5720 5722 5724 5726 5728 5731 5733 5735 5737 5740 5742 5744 5745 5747 5748 5750 5752 5753 5755 5757 5759 5760 5762 5764 5766 5768 5770 5772 5774
5705 5704 5702 5701 5699 5697 5695 5696 5697 5694 5694 5695 5696 5696 5697 5699 5701 5703 5705 5707 5709 5711 5713 5715 5717 5720 5722 5724 5726 5729 5731 5733 5734 5736 5737 5739 5740 5742 5744 5745 5747 5749 5751 5753 5755 5757 5759 5761 5764
5697 5695 5693 5692 5690 5688 5686 5685 5685 5685 5684 5684 5685 5685 5686 5687 5690 5692 5694 5695 5697 5699 5701 5703 5705 5708 5710 5712 5714 5717 5719 5721 5722 5724 5726 5727 5728 5729 5731 5733 5735 5737 5739 5741 5743 5745 5747 5750 5752
5689 5687 5685 5683 5681 5679 5677 5676 5675 5674 5674 5673 5673 5673 5674 5677 5679 5680 5682 5684 5685 5687 5688 5691 5693 5696 5698 5700 5702 5705 5707 5709 5711 5712 5713 5714 5716 5717 5719 5721 5722 5724 5726 5728 5730 5733 5735 5737 5739
5681 5678 5676 5674 5672 5669 5667 5666 5664 5664 5663 5662 5662 5662 5663 5665 5667 5669 5670 5672 5673 5675 5676 5678 5681 5683 5685 5688 5690 5692 5694 5696 5698 5699 5700 5702 5703 5705 5706 5708 5709 5711 5713 5715 5717 5719 5721 5723 5725
5673 5670 5668 5665 5663 5660 5657 5656 5655 5653 5652 5651 5651 5651 5652 5654 5656 5657 5659 5660 5662 5663 5664 5666 5669 5670 5672 5674 5676 5678 5680 5682 5684 5686 5688 5689 5690 5692 5693 5694 5696 5697 5699 5701 5703 5704 5707 5709 5711
5665 5662 5659 5656 5653 5651 5649 5644 5646 5643 5642 5641 5640 5640 5641 5643 5645 5646 5647 5649 5650 5652 5653 5654 5656 5658 5659 5661 5663 5665 5667 5669 5671 5673 5674 5676 5677 5678 5680 5681 5682 5683 5685 5686 5688 5690 5692 5694 5697
5657 5654 5652 5648 5645 5642 5640 5635 5636 5634 5633 5632 5631 5630 5631 5632 5634 5635 5637 5638 5639 5640 5641 5643 5645 5646 5647 5649 5650 5652 5654 5656 5657 5659 5661 5662 5663 5665 5666 5667 5668 5669 5670 5671 5673 5675 5676 5678 5681
5649 5646 5644 5640 5636 5633 5632 5627 5625 5625 5623 5622 5621 5620 5621 5622 5623 5624 5625 5626 5628 5629 5630 5632 5632 5634 5635 5636 5638 5639 5641 5643 5644 5646 5648 5649 5650 5651 5651 5652 5653 5654 5655 5656 5658 5660 5661 5663 5665
5642 5639 5635 5631 5628 5625 5624 5619 5618 5617 5615 5613 5612 5611 5611 5612 5613 5614 5614 5615 5616 5617 5619 5620 5621 5622 5623 5624 5625 5626 5628 5629 5631 5632 5634 5635 5636 5636 5636 5638 5638 5639 5640 5642 5643 5645 5646 5648 5650
5634 5631 5628 5624 5620 5618 5615 5611 5611 5609 5607 5604 5603 5602 5602 5602 5603 5604 5604 5605 5606 5606 5607 5608 5609 5609 5610 5611 5612 5613 5615 5616 5617 5618 5620 5621 5622 5622 5622 5623 5624 5624 5625 5627 5628 5629 5631 5633 5635
5626 5624 5621 5617 5612 5609 5607 5605 5603 5601 5599 5596 5595 5593 5593 5593 5593 5594 5594 5595 5595 5595 5595 5596 5597 5597 5598 5598 5599 5600 5601 5603 5604 5605 5606 5607 5607 5608 5608 5608 5609 5609 5610 5611 5612 5614 5615 5617 5620
5620 5616 5613 5609 5604 5601 5599 5597 5596 5592 5590 5588 5586 5584 5584 5584 5583 5583 5584 5584 5584 5584 5584 5584 5584 5584 5585 5586 5587 5587 5588 5589 5590 5591 5592 5592 5593 5593 5593 5594 5594 5594 5595 5596 5597 5598 5600 5602 5605
5613 5610 5605 5602 5598 5594 5589 5591 5588 5584 5581 5579 5577 5575 5574 5574 5573 5573 5573 5573 5572 5572 5572 5572 5572 5572 5572 5573 5574 5574 5575 5575 5576 5577 5577 5578 5578 5578 5578 5579 5579 5579 5580 5580 5582 5583 5585 5587 5590
5603 5601 5598 5595 5591 5587 5582 5584 5579 5576 5573 5570 5568 5566 5565 5565 5564 5563 5562 5562 5561 5561 5561 5560 5560 5560 5560 5560 5561 5561 5561 5562 5562 5563 5563 5563 5563 5563 5563 5564 5564 5565 5565 5566 5567 5569 5571 5573 5576